WX5II-2 Weather Reports


Display with metric or nautical units.
time (UTC)temp
F
wind
direction
speed
MPH
gust
MPH
rain 1hr
in
rain 24hr
in
rain mn
in
humidity
%
barometer
mb
20260503012632 69 351 0.0 0.0 0.00 0.00 0.00 34 1020.4
20260503011608 69 351 0.0 0.0 0.00 0.00 0.00 34 1019.4
20260503010546 70 351 0.0 0.0 0.00 0.00 0.00 33 1019.4
20260503005522 71 351 0.0 0.0 0.00 0.00 0.00 32 1019.4
20260503004459 71 351 0.0 0.0 0.00 0.00 0.00 31 1019.4
20260503003437 72 351 0.0 0.0 0.00 0.00 0.00 31 1019.4
20260503001351 72 351 0.0 0.0 0.00 0.00 0.00 29 1019.4
20260503000327 73 351 0.0 0.0 0.00 0.00 0.00 29 1019.4
20260502235305 73 351 0.0 0.0 0.00 0.00 0.00 29 1019.4
20260502234241 73 351 0.0 0.0 0.00 0.00 0.00 30 1019.4
20260502233215 73 351 0.0 0.0 0.00 0.00 0.00 29 1018.4
20260502232152 74 351 0.0 0.0 0.00 0.00 0.00 29 1018.4
20260502231128 74 351 0.0 0.0 0.00 0.00 0.00 29 1018.4
20260502230105 74 351 0.0 0.0 0.00 0.00 0.00 28 1019.4
20260502225042 74 351 0.0 0.0 0.00 0.00 0.00 29 1019.4
20260502224019 74 351 0.0 0.0 0.00 0.00 0.00 29 1019.4
20260502222955 74 351 0.0 0.0 0.00 0.00 0.00 28 1019.4
20260502221932 74 351 0.0 0.0 0.00 0.00 0.00 28 1019.4
20260502220909 74 351 0.0 0.0 0.00 0.00 0.00 29 1019.4
20260502214821 74 351 0.0 0.0 0.00 0.00 0.00 28 1019.4
20260502213759 74 351 0.0 0.0 0.00 0.00 0.00 29 1019.4
20260502212735 75 351 0.0 0.0 0.00 0.00 0.00 28 1019.4
20260502211711 74 351 0.0 0.0 0.00 0.00 0.00 29 1019.4
20260502210649 74 351 0.0 0.0 0.00 0.00 0.00 30 1019.4
20260502205625 74 351 0.0 0.0 0.00 0.00 0.00 31 1019.4
20260502204603 74 351 0.0 0.0 0.00 0.00 0.00 31 1019.4
20260502203538 73 351 0.0 0.0 0.00 0.00 0.00 31 1019.4
20260502202515 74 351 0.0 0.0 0.00 0.00 0.00 30 1019.4
20260502201452 74 351 0.0 0.0 0.00 0.00 0.00 31 1020.4
20260502195406 73 351 0.0 0.0 0.00 0.00 0.00 31 1020.4
20260502192256 72 351 0.0 0.0 0.00 0.00 0.00 32 1021.4
20260502191232 73 351 0.0 0.0 0.00 0.00 0.00 31 1021.4
20260502190209 73 351 0.0 0.0 0.00 0.00 0.00 32 1021.4
20260502185146 72 351 0.0 0.0 0.00 0.00 0.00 32 1021.4
20260502184123 72 351 0.0 0.0 0.00 0.00 0.00 32 1021.4
20260502183059 71 351 0.0 0.0 0.00 0.00 0.00 32 1021.4
20260502182036 71 351 0.0 0.0 0.00 0.00 0.00 32 1021.4
20260502181013 71 351 0.0 0.0 0.00 0.00 0.00 33 1021.4
20260502163645 68 351 0.0 0.0 0.00 0.00 0.00 35 1022.4
20260502162622 68 351 0.0 0.0 0.00 0.00 0.00 34 1022.4
20260502161559 67 351 0.0 0.0 0.00 0.00 0.00 35 1022.4
20260502160536 67 351 0.0 0.0 0.00 0.00 0.00 35 1022.4
20260502151342 64 351 0.0 3.0 0.00 0.00 0.00 36 1022.4
20260502150320 63 351 0.0 4.0 0.00 0.00 0.00 36 1022.4
20260502123755 51 347 0.0 0.0 0.00 0.00 0.00 75 1022.4
20260502122733 51 347 0.0 0.0 0.00 0.00 0.00 76 1022.4
20260502121710 51 351 0.0 0.0 0.00 0.00 0.00 83 1022.4
20260502120646 50 347 0.0 0.0 0.00 0.00 0.00 85 1022.4
20260502115624 50 347 0.0 0.0 0.00 0.00 0.00 86 1022.4
20260502114604 49 347 0.0 0.0 0.00 0.00 0.00 86 1022.4
20260502113539 49 347 0.0 0.0 0.00 0.00 0.00 86 1022.4
20260502112516 49 347 0.0 0.0 0.00 0.00 0.00 85 1022.4
20260502111454 49 347 0.0 0.0 0.00 0.00 0.00 84 1021.4
20260502110432 49 347 0.0 0.0 0.00 0.00 0.00 84 1021.4
20260502105410 49 347 0.0 0.0 0.00 0.00 0.00 83 1021.4
20260502104347 49 347 0.0 0.0 0.00 0.00 0.00 82 1021.4
20260502102305 50 347 0.0 4.0 0.00 0.00 0.00 82 1022.4
20260502101241 50 351 0.0 5.0 0.00 0.00 0.00 84 1022.4
20260502100218 50 347 0.0 3.0 0.00 0.00 0.00 84 1022.4
20260502070557 52 347 0.0 0.0 0.00 0.00 0.00 71 1020.4
20260502065534 52 347 0.0 0.0 0.00 0.00 0.00 70 1020.4
20260502064512 52 351 0.0 0.0 0.00 0.00 0.00 70 1020.4
20260502063449 53 351 0.0 0.0 0.00 0.00 0.00 70 1020.4
20260502062428 53 351 0.0 0.0 0.00 0.00 0.00 69 1020.4
20260502061405 53 351 0.0 0.0 0.00 0.00 0.00 69 1020.4
20260502060342 53 351 0.0 0.0 0.00 0.00 0.00 68 1020.4
20260502055320 53 351 0.0 0.0 0.00 0.00 0.00 67 1020.4
20260502054257 53 351 0.0 0.0 0.00 0.00 0.00 67 1020.4
20260502053236 53 351 0.0 0.0 0.00 0.00 0.00 67 1020.4
20260502052212 53 351 0.0 0.0 0.00 0.00 0.00 66 1020.4
20260502051150 54 351 0.0 0.0 0.00 0.00 0.00 65 1020.4
20260502050127 54 351 0.0 0.0 0.00 0.00 0.00 65 1020.4
20260502045106 54 351 0.0 0.0 0.00 0.00 0.00 65 1020.4
20260502044042 54 351 0.0 0.0 0.00 0.00 0.00 64 1020.4
20260502043020 55 351 0.0 0.0 0.00 0.00 0.00 64 1019.4
20260502041958 55 351 0.0 0.0 0.00 0.00 0.00 65 1019.4
20260502040935 55 351 0.0 0.0 0.00 0.00 0.00 65 1019.4
20260502035912 55 347 0.0 3.0 0.00 0.00 0.00 67 1019.4
20260502034849 56 351 0.0 3.0 0.00 0.00 0.00 69 1019.4
20260502033827 56 351 0.0 0.0 0.00 0.00 0.00 71 1019.4
20260502032804 56 351 0.0 0.0 0.00 0.00 0.00 70 1019.4
20260502031742 57 347 0.0 0.0 0.00 0.00 0.00 69 1018.4
20260502030719 57 351 0.0 4.0 0.00 0.00 0.00 68 1018.4
20260502025657 57 347 0.0 3.0 0.00 0.00 0.00 68 1018.4
20260502024631 58 347 3.0 4.0 0.00 0.00 0.00 69 1017.4
20260502023608 58 351 0.0 4.0 0.00 0.00 0.00 67 1017.4
20260502022547 58 351 0.0 3.0 0.00 0.00 0.00 68 1017.4
20260502021523 59 347 0.0 0.0 0.00 0.00 0.00 68 1016.4
20260502020501 59 351 3.0 4.0 0.00 0.00 0.00 67 1016.4
20260502015439 59 351 0.0 0.0 0.00 0.00 0.00 66 1016.4
20260502014415 59 351 3.0 4.0 0.00 0.00 0.00 65 1016.4